| time (UTC) | temp F | wind direction | speed MPH | gust MPH | rain 1hr in | rain 24hr in | rain mn in | humidity % | barometer mb |
| 20260506185015 | 77 | 289 | 7.0 | 15.0 | 0.00 | 0.00 | 0.00 | 74 | 1012.3 |
| 20260506184513 | 78 | 346 | 7.0 | 15.0 | 0.00 | 0.00 | 0.00 | 74 | 1012.3 |
| 20260506184011 | 78 | 292 | 6.0 | 13.0 | 0.00 | 0.00 | 0.00 | 75 | 1012.2 |
| 20260506183511 | 80 | 311 | 6.0 | 13.0 | 0.00 | 0.00 | 0.00 | 74 | 1012.2 |
| 20260506183016 | 80 | 341 | 5.0 | 11.0 | 0.00 | 0.00 | 0.00 | 73 | 1012.2 |
| 20260506182513 | 80 | 0 | 5.0 | 11.0 | 0.00 | 0.00 | 0.00 | 76 | 1012.2 |
| 20260506182014 | 78 | 328 | 6.0 | 11.0 | 0.00 | 0.00 | 0.00 | 75 | 1012.2 |
| 20260506181514 | 78 | 355 | 5.0 | 10.0 | 0.00 | 0.00 | 0.00 | 75 | 1012.3 |
| 20260506181012 | 79 | 331 | 5.0 | 10.0 | 0.00 | 0.00 | 0.00 | 75 | 1012.3 |
| 20260506180544 | 78 | 305 | 4.0 | 10.0 | 0.00 | 0.00 | 0.00 | 77 | 1012.1 |
| 20260506180533 | 79 | 349 | 5.0 | 10.0 | 0.00 | 0.00 | 0.00 | 76 | 1012.2 |
| 20260506175509 | 77 | 322 | 3.0 | 8.0 | 0.00 | 0.00 | 0.00 | 78 | 1012.0 |
| 20260506175006 | 76 | 347 | 3.0 | 8.0 | 0.00 | 0.00 | 0.00 | 77 | 1012.0 |
| 20260506174512 | 76 | 285 | 3.0 | 6.0 | 0.00 | 0.00 | 0.00 | 75 | 1011.9 |
| 20260506174242 | 78 | 67 | 3.0 | 9.0 | 0.00 | 0.00 | 0.00 | 73 | 1011.9 |
| 20260506173455 | 78 | 30 | 2.0 | 6.0 | 0.00 | 0.00 | 0.00 | 79 | 1011.9 |
| 20260506172959 | 75 | 73 | 2.0 | 6.0 | 0.00 | 0.00 | 0.00 | 80 | 1011.8 |
| 20260506172528 | 75 | 5 | 2.0 | 7.0 | 0.00 | 0.00 | 0.00 | 78 | 1012.0 |
| 20260506172512 | 75 | 329 | 2.0 | 7.0 | 0.00 | 0.00 | 0.00 | 78 | 1011.9 |
| 20260506171447 | 73 | 107 | 2.0 | 9.0 | 0.00 | 0.00 | 0.00 | 78 | 1012.0 |
| 20260506170949 | 74 | 42 | 4.0 | 9.0 | 0.00 | 0.00 | 0.00 | 80 | 1012.1 |
| 20260506170445 | 74 | 53 | 4.0 | 9.0 | 0.00 | 0.00 | 0.00 | 79 | 1012.0 |
| 20260506165944 | 73 | 42 | 4.0 | 11.0 | 0.00 | 0.00 | 0.00 | 79 | 1012.0 |
| 20260506165726 | 72 | 15 | 4.0 | 11.0 | 0.00 | 0.00 | 0.00 | 81 | 1012.1 |
| 20260506165219 | 71 | 91 | 5.0 | 11.0 | 0.00 | 0.00 | 0.00 | 81 | 1012.2 |
| 20260506164438 | 70 | 19 | 5.0 | 11.0 | 0.00 | 0.00 | 0.00 | 83 | 1012.3 |
| 20260506163933 | 69 | 5 | 5.0 | 10.0 | 0.00 | 0.00 | 0.00 | 85 | 1012.3 |
| 20260506163434 | 67 | 28 | 5.0 | 13.0 | 0.00 | 0.00 | 0.00 | 86 | 1012.4 |
| 20260506162931 | 66 | 17 | 6.0 | 15.0 | 0.00 | 0.00 | 0.00 | 86 | 1012.5 |
| 20260506162427 | 67 | 334 | 7.0 | 17.0 | 0.00 | 0.00 | 0.00 | 85 | 1012.7 |
| 20260506161926 | 67 | 19 | 8.0 | 19.0 | 0.00 | 0.00 | 0.00 | 87 | 1012.7 |
| 20260506161428 | 66 | 329 | 10.0 | 20.0 | 0.00 | 0.00 | 0.00 | 86 | 1012.6 |
| 20260506160926 | 67 | 5 | 12.0 | 23.0 | 0.00 | 0.00 | 0.00 | 87 | 1013.1 |
| 20260506160716 | 67 | 345 | 12.0 | 27.0 | 0.00 | 0.00 | 0.00 | 86 | 1013.4 |
| 20260506155925 | 67 | 9 | 11.0 | 27.0 | 0.00 | 0.00 | 0.00 | 86 | 1013.2 |
| 20260506155425 | 68 | 346 | 10.0 | 22.0 | 0.00 | 0.00 | 0.00 | 86 | 1012.7 |
| 20260506154925 | 68 | 26 | 9.0 | 22.0 | 0.00 | 0.00 | 0.00 | 85 | 1012.9 |
| 20260506154424 | 69 | 315 | 9.0 | 17.0 | 0.00 | 0.00 | 0.00 | 85 | 1012.6 |
| 20260506153922 | 69 | 5 | 11.0 | 19.0 | 0.00 | 0.00 | 0.00 | 85 | 1012.5 |
| 20260506153422 | 70 | 24 | 10.0 | 19.0 | 0.00 | 0.00 | 0.00 | 85 | 1012.5 |
| 20260506152919 | 70 | 339 | 9.0 | 19.0 | 0.00 | 0.00 | 0.00 | 84 | 1012.6 |
| 20260506152416 | 71 | 331 | 11.0 | 21.0 | 0.00 | 0.00 | 0.00 | 84 | 1012.5 |
| 20260506151913 | 72 | 355 | 11.0 | 21.0 | 0.00 | 0.00 | 0.00 | 82 | 1012.2 |
| 20260506151722 | 74 | 345 | 7.0 | 18.0 | 0.00 | 0.00 | 0.00 | 82 | 1012.0 |
| 20260506150908 | 77 | 332 | 2.0 | 15.0 | 0.00 | 0.00 | 0.00 | 83 | 1012.4 |
| 20260506150409 | 78 | 184 | 2.0 | 5.0 | 0.00 | 0.00 | 0.00 | 86 | 1011.8 |
| 20260506145908 | 78 | 184 | 3.0 | 6.0 | 0.00 | 0.00 | 0.00 | 86 | 1011.8 |
| 20260506145632 | 78 | 173 | 3.0 | 7.0 | 0.00 | 0.00 | 0.00 | 86 | 1011.5 |
| 20260506144907 | 78 | 178 | 4.0 | 7.0 | 0.00 | 0.00 | 0.00 | 86 | 1011.4 |
| 20260506144637 | 78 | 162 | 4.0 | 9.0 | 0.00 | 0.00 | 0.00 | 86 | 1011.1 |
| 20260506143902 | 78 | 165 | 5.0 | 11.0 | 0.00 | 0.00 | 0.00 | 86 | 1011.0 |
| 20260506143403 | 78 | 155 | 3.0 | 11.0 | 0.00 | 0.00 | 0.00 | 86 | 1011.0 |
| 20260506142902 | 78 | 142 | 4.0 | 9.0 | 0.00 | 0.00 | 0.00 | 87 | 1010.8 |
| 20260506142402 | 78 | 142 | 4.0 | 9.0 | 0.00 | 0.00 | 0.00 | 86 | 1010.8 |
| 20260506141905 | 78 | 136 | 4.0 | 8.0 | 0.00 | 0.00 | 0.00 | 87 | 1010.5 |
| 20260506141401 | 78 | 99 | 4.0 | 8.0 | 0.00 | 0.00 | 0.00 | 88 | 1010.4 |
| 20260506140946 | 76 | 115 | 3.0 | 0.0 | 0.00 | 0.00 | 0.00 | 90 | 1010.6 |
| 20260506140932 | 77 | 147 | 3.0 | 8.0 | 0.00 | 0.00 | 0.00 | 90 | 1010.3 |
| 20260506140210 | 76 | 132 | 2.0 | 2.0 | 0.00 | 0.00 | 0.00 | 90 | 1010.8 |
| 20260506140153 | 76 | 132 | 2.0 | 2.0 | 0.00 | 0.00 | 0.00 | 90 | 1010.8 |
| 20260506135011 | 76 | 134 | 4.0 | 5.0 | 0.00 | 0.00 | 0.00 | 90 | 1010.1 |
| 20260506134506 | 76 | 134 | 4.0 | 8.0 | 0.00 | 0.00 | 0.00 | 90 | 1010.1 |
| 20260506133449 | 76 | 101 | 5.0 | 8.0 | 0.00 | 0.00 | 0.00 | 90 | 1010.1 |
| 20260506132949 | 76 | 120 | 5.0 | 9.0 | 0.00 | 0.00 | 0.00 | 90 | 1010.2 |
| 20260506132444 | 76 | 113 | 5.0 | 9.0 | 0.00 | 0.00 | 0.00 | 90 | 1010.1 |
| 20260506131944 | 76 | 117 | 6.0 | 9.0 | 0.00 | 0.00 | 0.00 | 90 | 1010.1 |
| 20260506131444 | 76 | 130 | 6.0 | 9.0 | 0.00 | 0.00 | 0.00 | 90 | 1010.0 |
| 20260506130942 | 76 | 103 | 5.0 | 10.0 | 0.00 | 0.00 | 0.00 | 90 | 1009.8 |
| 20260506130442 | 76 | 130 | 4.0 | 10.0 | 0.00 | 0.00 | 0.00 | 90 | 1009.8 |
| 20260506125943 | 76 | 109 | 4.0 | 8.0 | 0.00 | 0.00 | 0.00 | 90 | 1010.0 |
| 20260506125722 | 75 | 109 | 4.0 | 8.0 | 0.00 | 0.00 | 0.00 | 90 | 1009.8 |
| 20260506124936 | 75 | 117 | 4.0 | 9.0 | 0.00 | 0.00 | 0.00 | 90 | 1009.5 |
| 20260506124435 | 75 | 118 | 4.0 | 9.0 | 0.00 | 0.00 | 0.00 | 90 | 1009.5 |
| 20260506123936 | 75 | 118 | 3.0 | 8.0 | 0.00 | 0.00 | 0.00 | 90 | 1009.5 |
| 20260506123435 | 75 | 118 | 3.0 | 7.0 | 0.00 | 0.00 | 0.00 | 90 | 1009.5 |
| 20260506122930 | 75 | 121 | 3.0 | 7.0 | 0.00 | 0.00 | 0.00 | 90 | 1009.5 |
| 20260506122429 | 75 | 114 | 3.0 | 7.0 | 0.00 | 0.00 | 0.00 | 90 | 1009.5 |
| 20260506121930 | 75 | 113 | 3.0 | 6.0 | 0.00 | 0.00 | 0.00 | 89 | 1009.4 |
| 20260506121430 | 75 | 113 | 3.0 | 6.0 | 0.00 | 0.00 | 0.00 | 89 | 1009.5 |
| 20260506120923 | 75 | 112 | 3.0 | 6.0 | 0.00 | 0.00 | 0.00 | 89 | 1009.5 |
| 20260506120420 | 75 | 115 | 2.0 | 4.0 | 0.00 | 0.00 | 0.00 | 89 | 1009.5 |
| 20260506115916 | 75 | 115 | 3.0 | 4.0 | 0.00 | 0.00 | 0.00 | 89 | 1009.5 |
| 20260506115701 | 75 | 115 | 3.0 | 4.0 | 0.00 | 0.00 | 0.00 | 89 | 1009.4 |
| 20260506114911 | 75 | 115 | 3.0 | 5.0 | 0.00 | 0.00 | 0.00 | 89 | 1009.4 |
| 20260506114411 | 75 | 118 | 3.0 | 5.0 | 0.00 | 0.00 | 0.00 | 89 | 1009.5 |
| 20260506113909 | 75 | 127 | 2.0 | 4.0 | 0.00 | 0.00 | 0.00 | 89 | 1009.5 |
| 20260506113407 | 75 | 130 | 1.0 | 3.0 | 0.00 | 0.00 | 0.00 | 89 | 1009.5 |
| 20260506112909 | 76 | 130 | 1.0 | 2.0 | 0.00 | 0.00 | 0.00 | 89 | 1009.6 |
| 20260506112409 | 76 | 130 | 1.0 | 3.0 | 0.00 | 0.00 | 0.00 | 89 | 1009.6 |
| 20260506111907 | 76 | 130 | 1.0 | 3.0 | 0.00 | 0.00 | 0.00 | 89 | 1009.5 |
| 20260506111408 | 76 | 130 | 1.0 | 2.0 | 0.00 | 0.00 | 0.00 | 89 | 1009.8 |
| 20260506110937 | 76 | 131 | 2.0 | 4.0 | 0.00 | 0.00 | 0.00 | 89 | 1009.6 |
| 20260506110929 | 76 | 130 | 1.0 | 3.0 | 0.00 | 0.00 | 0.00 | 89 | 1009.6 |
| 20260506105906 | 76 | 131 | 2.0 | 4.0 | 0.00 | 0.00 | 0.00 | 89 | 1009.5 |
| 20260506105339 | 76 | 131 | 2.0 | 4.0 | 0.00 | 0.00 | 0.00 | 89 | 1009.6 |
| 20260506105113 | 76 | 146 | 2.0 | 3.0 | 0.00 | 0.00 | 0.00 | 89 | 1009.4 |
| 20260506104335 | 76 | 151 | 2.0 | 4.0 | 0.00 | 0.00 | 0.00 | 89 | 1009.4 |
| 20260506103835 | 76 | 153 | 2.0 | 4.0 | 0.00 | 0.00 | 0.00 | 89 | 1009.4 |
| 20260506103335 | 76 | 152 | 1.0 | 3.0 | 0.00 | 0.00 | 0.00 | 89 | 1009.5 |
| 20260506102830 | 76 | 152 | 0.0 | 3.0 | 0.00 | 0.00 | 0.00 | 89 | 1009.4 |
| 20260506102637 | 76 | 152 | 2.0 | 6.0 | 0.00 | 0.00 | 0.00 | 89 | 1009.4 |
| 20260506102628 | 76 | 152 | 1.0 | 6.0 | 0.00 | 0.00 | 0.00 | 89 | 1009.4 |
| 20260506101329 | 76 | 170 | 3.0 | 6.0 | 0.00 | 0.00 | 0.00 | 89 | 1009.3 |
| 20260506101100 | 76 | 156 | 3.0 | 8.0 | 0.00 | 0.00 | 0.00 | 89 | 1009.3 |
| 20260506100332 | 76 | 171 | 4.0 | 8.0 | 0.00 | 0.00 | 0.00 | 89 | 1009.1 |
| 20260506095821 | 76 | 144 | 4.0 | 8.0 | 0.00 | 0.00 | 0.00 | 89 | 1009.0 |
| 20260506095311 | 76 | 159 | 4.0 | 8.0 | 0.00 | 0.00 | 0.00 | 89 | 1008.9 |
| 20260506094810 | 76 | 117 | 4.0 | 9.0 | 0.00 | 0.00 | 0.00 | 89 | 1008.9 |
| 20260506094310 | 76 | 187 | 5.0 | 11.0 | 0.00 | 0.00 | 0.00 | 89 | 1008.9 |
| 20260506093825 | 76 | 159 | 5.0 | 11.0 | 0.00 | 0.00 | 0.00 | 89 | 1008.9 |
| 20260506093311 | 76 | 196 | 5.0 | 10.0 | 0.00 | 0.00 | 0.00 | 89 | 1008.8 |
| 20260506092811 | 76 | 176 | 5.0 | 11.0 | 0.00 | 0.00 | 0.00 | 89 | 1008.8 |
| 20260506092310 | 76 | 210 | 4.0 | 11.0 | 0.00 | 0.00 | 0.00 | 89 | 1008.8 |
| 20260506092053 | 76 | 188 | 4.0 | 10.0 | 0.00 | 0.00 | 0.00 | 89 | 1008.7 |
| 20260506091307 | 76 | 155 | 4.0 | 10.0 | 0.00 | 0.00 | 0.00 | 89 | 1008.6 |
| 20260506090805 | 76 | 166 | 4.0 | 9.0 | 0.00 | 0.00 | 0.00 | 89 | 1008.6 |
| 20260506090307 | 76 | 145 | 5.0 | 9.0 | 0.00 | 0.00 | 0.00 | 88 | 1008.5 |
| 20260506085836 | 76 | 130 | 4.0 | 10.0 | 0.00 | 0.00 | 0.00 | 88 | 1008.3 |
| 20260506085807 | 76 | 130 | 4.0 | 10.0 | 0.00 | 0.00 | 0.00 | 88 | 1008.3 |
| 20260506084245 | 76 | 147 | 6.0 | 11.0 | 0.00 | 0.00 | 0.00 | 88 | 1008.4 |
| 20260506083753 | 76 | 168 | 5.0 | 12.0 | 0.00 | 0.00 | 0.00 | 88 | 1008.4 |
| 20260506083244 | 76 | 180 | 5.0 | 12.0 | 0.00 | 0.00 | 0.00 | 88 | 1008.5 |
| 20260506082744 | 76 | 152 | 6.0 | 11.0 | 0.00 | 0.00 | 0.00 | 88 | 1008.4 |
| 20260506082241 | 76 | 149 | 6.0 | 12.0 | 0.00 | 0.00 | 0.00 | 88 | 1008.4 |
| 20260506081739 | 76 | 0 | 6.0 | 12.0 | 0.00 | 0.00 | 0.00 | 88 | 1008.4 |
| 20260506081239 | 76 | 153 | 7.0 | 13.0 | 0.00 | 0.00 | 0.00 | 88 | 1008.5 |
| 20260506080733 | 76 | 152 | 7.0 | 13.0 | 0.00 | 0.00 | 0.00 | 88 | 1008.6 |
| 20260506080234 | 76 | 158 | 7.0 | 11.0 | 0.00 | 0.00 | 0.00 | 88 | 1008.6 |
| 20260506073233 | 76 | 179 | 8.0 | 15.0 | 0.00 | 0.00 | 0.00 | 88 | 1008.9 |
| 20260506072723 | 76 | 161 | 9.0 | 15.0 | 0.00 | 0.00 | 0.00 | 88 | 1008.9 |
| 20260506072224 | 76 | 146 | 8.0 | 15.0 | 0.00 | 0.00 | 0.00 | 88 | 1008.9 |
| 20260506072004 | 76 | 0 | 8.0 | 16.0 | 0.00 | 0.00 | 0.00 | 88 | 1009.0 |
| 20260506071218 | 76 | 157 | 9.0 | 18.0 | 0.00 | 0.00 | 0.00 | 88 | 1009.1 |
| 20260506070717 | 76 | 136 | 10.0 | 18.0 | 0.00 | 0.00 | 0.00 | 88 | 1009.0 |
| 20260506070221 | 76 | 186 | 9.0 | 19.0 | 0.00 | 0.00 | 0.00 | 88 | 1008.8 |
| 20260506062206 | 76 | 0 | 8.0 | 14.0 | 0.00 | 0.00 | 0.00 | 88 | 1008.9 |
| 20260506061705 | 76 | 172 | 8.0 | 15.0 | 0.00 | 0.00 | 0.00 | 88 | 1008.8 |
| 20260506061203 | 76 | 127 | 8.0 | 15.0 | 0.00 | 0.00 | 0.00 | 88 | 1009.0 |
| 20260506060703 | 76 | 125 | 7.0 | 15.0 | 0.00 | 0.00 | 0.00 | 88 | 1008.8 |
| 20260506060201 | 76 | 150 | 7.0 | 15.0 | 0.00 | 0.00 | 0.00 | 88 | 1008.8 |
| 20260506051201 | 76 | 145 | 8.0 | 14.0 | 0.00 | 0.00 | 0.00 | 88 | 1008.9 |
| 20260506050701 | 76 | 146 | 7.0 | 14.0 | 0.00 | 0.00 | 0.00 | 88 | 1008.9 |
| 20260506050427 | 76 | 190 | 7.0 | 14.0 | 0.00 | 0.00 | 0.00 | 88 | 1008.8 |
| 20260506044634 | 76 | 141 | 8.0 | 16.0 | 0.00 | 0.00 | 0.00 | 88 | 1008.8 |
| 20260506044134 | 76 | 0 | 9.0 | 16.0 | 0.00 | 0.00 | 0.00 | 88 | 1008.9 |
| 20260506043634 | 76 | 163 | 8.0 | 15.0 | 0.00 | 0.00 | 0.00 | 88 | 1008.9 |
| 20260506043134 | 77 | 0 | 8.0 | 16.0 | 0.00 | 0.00 | 0.00 | 87 | 1008.8 |
| 20260506042633 | 77 | 157 | 8.0 | 16.0 | 0.00 | 0.00 | 0.00 | 87 | 1008.9 |
| 20260506042134 | 77 | 148 | 7.0 | 14.0 | 0.00 | 0.00 | 0.00 | 87 | 1008.9 |
| 20260506041633 | 77 | 148 | 7.0 | 14.0 | 0.00 | 0.00 | 0.00 | 87 | 1008.7 |
| 20260506041412 | 77 | 144 | 8.0 | 14.0 | 0.00 | 0.00 | 0.00 | 87 | 1008.7 |
| 20260506040632 | 77 | 172 | 8.0 | 14.0 | 0.00 | 0.00 | 0.00 | 87 | 1008.6 |
| 20260506040425 | 77 | 128 | 7.0 | 13.0 | 0.00 | 0.00 | 0.00 | 87 | 1008.6 |
| 20260506035629 | 77 | 0 | 7.0 | 13.0 | 0.00 | 0.00 | 0.00 | 86 | 1008.6 |
| 20260506035131 | 77 | 133 | 8.0 | 14.0 | 0.00 | 0.00 | 0.00 | 86 | 1008.4 |
| 20260506034629 | 77 | 132 | 8.0 | 14.0 | 0.00 | 0.00 | 0.00 | 86 | 1008.3 |
| 20260506034130 | 77 | 164 | 7.0 | 14.0 | 0.00 | 0.00 | 0.00 | 86 | 1008.3 |
| 20260506033629 | 78 | 127 | 7.0 | 12.0 | 0.00 | 0.00 | 0.00 | 86 | 1008.5 |
| 20260506033351 | 78 | 140 | 7.0 | 13.0 | 0.00 | 0.00 | 0.00 | 85 | 1008.5 |
| 20260506032630 | 78 | 157 | 7.0 | 13.0 | 0.00 | 0.00 | 0.00 | 85 | 1008.3 |
| 20260506032131 | 78 | 144 | 7.0 | 13.0 | 0.00 | 0.00 | 0.00 | 85 | 1008.1 |
| 20260506031914 | 78 | 109 | 7.0 | 13.0 | 0.00 | 0.00 | 0.00 | 84 | 1008.1 |
| 20260506031127 | 78 | 134 | 7.0 | 13.0 | 0.00 | 0.00 | 0.00 | 84 | 1008.0 |
| 20260506030625 | 78 | 138 | 7.0 | 12.0 | 0.00 | 0.00 | 0.00 | 84 | 1008.0 |
| 20260506030126 | 78 | 129 | 7.0 | 13.0 | 0.00 | 0.00 | 0.00 | 84 | 1007.8 |
| 20260506025624 | 78 | 133 | 6.0 | 13.0 | 0.00 | 0.00 | 0.00 | 83 | 1008.0 |
| 20260506025124 | 78 | 136 | 6.0 | 11.0 | 0.00 | 0.00 | 0.00 | 83 | 1008.0 |
| 20260506024622 | 78 | 139 | 5.0 | 9.0 | 0.00 | 0.00 | 0.00 | 83 | 1007.7 |
| 20260506024120 | 78 | 118 | 5.0 | 9.0 | 0.00 | 0.00 | 0.00 | 83 | 1007.7 |
| 20260506023623 | 78 | 140 | 5.0 | 9.0 | 0.00 | 0.00 | 0.00 | 83 | 1007.7 |
| 20260506023123 | 78 | 140 | 5.0 | 9.0 | 0.00 | 0.00 | 0.00 | 83 | 1007.5 |
| 20260506022622 | 78 | 125 | 5.0 | 9.0 | 0.00 | 0.00 | 0.00 | 82 | 1007.5 |
| 20260506022143 | 79 | 148 | 5.0 | 9.0 | 0.00 | 0.00 | 0.00 | 82 | 1007.3 |
| 20260506022133 | 78 | 140 | 5.0 | 9.0 | 0.00 | 0.00 | 0.00 | 82 | 1007.3 |
| 20260506021121 | 79 | 104 | 5.0 | 9.0 | 0.00 | 0.00 | 0.00 | 82 | 1007.3 |
| 20260506020612 | 79 | 118 | 6.0 | 9.0 | 0.00 | 0.00 | 0.00 | 82 | 1007.2 |
| 20260506020112 | 79 | 144 | 6.0 | 10.0 | 0.00 | 0.00 | 0.00 | 81 | 1006.9 |
| 20260506015615 | 79 | 0 | 6.0 | 10.0 | 0.00 | 0.00 | 0.00 | 81 | 1006.8 |
| 20260506015112 | 79 | 121 | 4.0 | 9.0 | 0.00 | 0.00 | 0.00 | 81 | 1006.7 |
| 20260506014612 | 79 | 114 | 4.0 | 9.0 | 0.00 | 0.00 | 0.00 | 81 | 1006.7 |
| 20260506014116 | 80 | 118 | 5.0 | 9.0 | 0.00 | 0.00 | 0.00 | 80 | 1006.8 |
| 20260506013616 | 80 | 120 | 5.0 | 9.0 | 0.00 | 0.00 | 0.00 | 80 | 1006.8 |
| 20260506013115 | 80 | 123 | 5.0 | 11.0 | 0.00 | 0.00 | 0.00 | 80 | 1006.7 |
| 20260506012611 | 80 | 130 | 5.0 | 11.0 | 0.00 | 0.00 | 0.00 | 79 | 1006.9 |
| 20260506012125 | 80 | 0 | 5.0 | 10.0 | 0.00 | 0.00 | 0.00 | 79 | 1006.8 |
| 20260506011618 | 81 | 134 | 5.0 | 9.0 | 0.00 | 0.00 | 0.00 | 78 | 1007.0 |
| 20260506011608 | 81 | 138 | 5.0 | 8.0 | 0.00 | 0.00 | 0.00 | 78 | 1006.8 |
| 20260506011045 | 81 | 127 | 4.0 | 9.0 | 0.00 | 0.00 | 0.00 | 77 | 1006.9 |
| 20260506010458 | 82 | 142 | 3.0 | 7.0 | 0.00 | 0.00 | 0.00 | 76 | 1006.9 |
| 20260506010440 | 82 | 148 | 3.0 | 7.0 | 0.00 | 0.00 | 0.00 | 76 | 1007.0 |
| 20260506010356 | 82 | 172 | 3.0 | 8.0 | 0.00 | 0.00 | 0.00 | 75 | 1006.9 |
| 20260506010339 | 81 | 133 | 4.0 | 7.0 | 0.00 | 0.00 | 0.00 | 77 | 1006.8 |
| 20260506010300 | 83 | 151 | 3.0 | 8.0 | 0.00 | 0.00 | 0.00 | 74 | 1007.0 |
| 20260506010224 | 83 | 132 | 4.0 | 9.0 | 0.00 | 0.00 | 0.00 | 74 | 1006.9 |
| 20260506010139 | 83 | 173 | 6.0 | 10.0 | 0.00 | 0.00 | 0.00 | 73 | 1006.6 |
| 20260506010111 | 81 | 133 | 4.0 | 7.0 | 0.00 | 0.00 | 0.00 | 77 | 1006.8 |
| 20260506010029 | 82 | 0 | 4.0 | 8.0 | 0.00 | 0.00 | 0.00 | 76 | 1006.7 |
| 20260506005930 | 82 | 141 | 3.0 | 8.0 | 0.00 | 0.00 | 0.00 | 76 | 1006.7 |
| 20260506005808 | 82 | 130 | 4.0 | 7.0 | 0.00 | 0.00 | 0.00 | 76 | 1006.8 |
| 20260506001320 | 83 | 146 | 3.0 | 9.0 | 0.00 | 0.00 | 0.00 | 74 | 1007.0 |
| 20260506000542 | 83 | 182 | 3.0 | 7.0 | 0.00 | 0.00 | 0.00 | 75 | 1006.8 |
| 20260506000519 | 83 | 121 | 4.0 | 9.0 | 0.00 | 0.00 | 0.00 | 74 | 1006.7 |
| 20260505235743 | 84 | 181 | 6.0 | 14.0 | 0.00 | 0.00 | 0.00 | 71 | 1006.7 |
| 20260505235522 | 83 | 157 | 5.0 | 11.0 | 0.00 | 0.00 | 0.00 | 74 | 1006.6 |
| 20260505235316 | 84 | 150 | 6.0 | 12.0 | 0.00 | 0.00 | 0.00 | 72 | 1006.6 |
| 20260505235001 | 83 | 150 | 5.0 | 11.0 | 0.00 | 0.00 | 0.00 | 74 | 1006.6 |
| 20260505234956 | 83 | 138 | 5.0 | 12.0 | 0.00 | 0.00 | 0.00 | 73 | 1006.5 |
| 20260505234244 | 83 | 166 | 6.0 | 12.0 | 0.00 | 0.00 | 0.00 | 73 | 1006.5 |
| 20260505231431 | 84 | 0 | 5.0 | 14.0 | 0.00 | 0.00 | 0.00 | 72 | 1006.7 |
| 20260505230928 | 84 | 196 | 6.0 | 13.0 | 0.00 | 0.00 | 0.00 | 72 | 1006.7 |
| 20260505230648 | 84 | 180 | 6.0 | 13.0 | 0.00 | 0.00 | 0.00 | 71 | 1006.5 |
| 20260505230155 | 84 | 167 | 5.0 | 8.0 | 0.00 | 0.00 | 0.00 | 71 | 1006.4 |
| 20260505225416 | 85 | 150 | 7.0 | 0.0 | 0.00 | 0.00 | 0.00 | 70 | 1006.6 |
| 20260505224925 | 85 | 142 | 6.0 | 11.0 | 0.00 | 0.00 | 0.00 | 70 | 1006.4 |
| 20260505224655 | 85 | 142 | 6.0 | 14.0 | 0.00 | 0.00 | 0.00 | 70 | 1006.4 |
| 20260505224149 | 85 | 158 | 7.0 | 14.0 | 0.00 | 0.00 | 0.00 | 69 | 1006.4 |
| 20260505223943 | 85 | 158 | 7.0 | 14.0 | 0.00 | 0.00 | 0.00 | 69 | 1006.4 |
| 20260505223357 | 85 | 165 | 7.0 | 16.0 | 0.00 | 0.00 | 0.00 | 69 | 1006.4 |
| 20260505222649 | 85 | 167 | 7.0 | 15.0 | 0.00 | 0.00 | 0.00 | 69 | 1006.4 |
| 20260505222459 | 85 | 162 | 7.0 | 14.0 | 0.00 | 0.00 | 0.00 | 69 | 1006.5 |
| 20260505221920 | 85 | 167 | 7.0 | 15.0 | 0.00 | 0.00 | 0.00 | 69 | 1006.4 |
| 20260505221649 | 85 | 167 | 7.0 | 15.0 | 0.00 | 0.00 | 0.00 | 70 | 1006.2 |
| 20260505220647 | 87 | 153 | 7.0 | 15.0 | 0.00 | 0.00 | 0.00 | 67 | 1006.5 |
| 20260505220623 | 86 | 166 | 6.0 | 15.0 | 0.00 | 0.00 | 0.00 | 71 | 1006.8 |
| 20260505215249 | 87 | 159 | 8.0 | 15.0 | 0.00 | 0.00 | 0.00 | 69 | 1006.7 |